Satellite: HUBBLE
Catalog number: 20580
Epoch time:      10196.04063386
Element set:     603
Inclination:      028.4692 deg
RA of node:       058.0248 deg
Eccentricity:    0.0003494
Arg of perigee:   140.7115 deg
Mean anomaly:     219.3727 deg
Mean motion:   15.00997412 rev/day
Decay rate:       3.42e-06 rev/day^2
Epoch rev:           90894
Checksum:              285

Satellite: ISS
Catalog number: 25544
Epoch time:      10197.00956019
Element set:     520
Inclination:      051.6470 deg
RA of node:       083.0369 deg
Eccentricity:    0.0010240
Arg of perigee:   083.4786 deg
Mean anomaly:     121.0410 deg
Mean motion:   15.72435387 rev/day
Decay rate:     1.1172e-04 rev/day^2
Epoch rev:           66800
Checksum:              263

Satellite: CO-58
Catalog number: 28895
Epoch time:      10195.67099861
Element set:    0631
Inclination:      098.0120 deg
RA of node:       079.2340 deg
Eccentricity:    0.0017638
Arg of perigee:   195.5242 deg
Mean anomaly:     164.5406 deg
Mean motion:   14.59910019 rev/day
Decay rate:       2.39e-06 rev/day^2
Epoch rev:           25099
Checksum:              329

Satellite: FALCON
Catalog number: 30776
Epoch time:      10195.57015822
Element set:     870
Inclination:      035.4338 deg
RA of node:       238.0411 deg
Eccentricity:    0.0001050
Arg of perigee:   016.2630 deg
Mean anomaly:     343.8120 deg
Mean motion:   15.03712909 rev/day
Decay rate:       3.18e-06 rev/day^2
Epoch rev:           18418
Checksum:              254

Satellite: MAST
Catalog number: 31126
Epoch time:      10196.58241230
Element set:     913
Inclination:      097.9355 deg
RA of node:       237.1246 deg
Eccentricity:    0.0095146
Arg of perigee:   137.3247 deg
Mean anomaly:     223.5410 deg
Mean motion:   14.53601830 rev/day
Decay rate:        6.6e-07 rev/day^2
Epoch rev:           17218
Checksum:              272

Satellite: CAPE1
Catalog number: 31130
Epoch time:      10196.79931752
Element set:     934
Inclination:      097.9357 deg
RA of node:       234.6823 deg
Eccentricity:    0.0103658
Arg of perigee:   144.7714 deg
Mean anomaly:     216.0342 deg
Mean motion:   14.52197759 rev/day
Decay rate:       -2.7e-07 rev/day^2
Epoch rev:           17181
Checksum:              310

Satellite: COMPASS
Catalog number: 32787
Epoch time:      10196.73058185
Element set:     724
Inclination:      097.8935 deg
RA of node:       261.0940 deg
Eccentricity:    0.0015492
Arg of perigee:   188.6737 deg
Mean anomaly:     171.4225 deg
Mean motion:   14.81906531 rev/day
Decay rate:       -5.7e-07 rev/day^2
Epoch rev:           11972
Checksum:              321

Satellite: AAUSAT2
Catalog number: 32788
Epoch time:      10195.17801300
Element set:     716
Inclination:      097.8929 deg
RA of node:       259.6953 deg
Eccentricity:    0.0014652
Arg of perigee:   194.4242 deg
Mean anomaly:     165.6503 deg
Mean motion:   14.82050835 rev/day
Decay rate:     -.00000000 rev/day^2
Epoch rev:           11950
Checksum:              288

Satellite: DO-64
Catalog number: 32789
Epoch time:      10195.72426691
Element set:     734
Inclination:      097.9003 deg
RA of node:       260.7402 deg
Eccentricity:    0.0015327
Arg of perigee:   190.7514 deg
Mean anomaly:     169.3370 deg
Mean motion:   14.82206247 rev/day
Decay rate:       1.45e-06 rev/day^2
Epoch rev:           11958
Checksum:              309

Satellite: CO-66
Catalog number: 32791
Epoch time:      10196.68917615
Element set:     717
Inclination:      097.8936 deg
RA of node:       261.0659 deg
Eccentricity:    0.0015632
Arg of perigee:   187.4304 deg
Mean anomaly:     172.6691 deg
Mean motion:   14.81689840 rev/day
Decay rate:       5.12e-06 rev/day^2
Epoch rev:           11967
Checksum:              347

Satellite: RS-30
Catalog number: 32953
Epoch time:      10196.54206965
Element set:     869
Inclination:      082.5000 deg
RA of node:       012.0420 deg
Eccentricity:    0.0019676
Arg of perigee:   042.6781 deg
Mean anomaly:     317.5825 deg
Mean motion:   12.43006428 rev/day
Decay rate:        1.0e-07 rev/day^2
Epoch rev:            9726
Checksum:              280

Satellite: TACSAT-3
Catalog number: 35001
Epoch time:      10195.96097267
Element set:    0336
Inclination:      040.4557 deg
RA of node:       047.2480 deg
Eccentricity:    0.0021169
Arg of perigee:   217.1810 deg
Mean anomaly:     142.7540 deg
Mean motion:   15.42006528 rev/day
Decay rate:      3.281e-05 rev/day^2
Epoch rev:           06492
Checksum:              275

Satellite: PHARMSAT
Catalog number: 35002
Epoch time:      10195.97019965
Element set:    0317
Inclination:      040.4694 deg
RA of node:       045.0942 deg
Eccentricity:    0.0024338
Arg of perigee:   220.0680 deg
Mean anomaly:     139.8340 deg
Mean motion:   15.42510805 rev/day
Decay rate:      2.738e-05 rev/day^2
Epoch rev:           06494
Checksum:              282

Satellite: HAWKSAT1
Catalog number: 35003
Epoch time:      10195.95083205
Element set:    0340
Inclination:      040.4604 deg
RA of node:       039.1841 deg
Eccentricity:    0.0022468
Arg of perigee:   236.7994 deg
Mean anomaly:     123.0667 deg
Mean motion:   15.45813011 rev/day
Decay rate:      6.425e-05 rev/day^2
Epoch rev:           06501
Checksum:              264

